TITAN 3C TRANSTAGE DEB, 1684

Orbit data source: Space-Track

TITAN 3C TRANSTAGE DEB, 1684 is space debris in LEO originally from a launch on Fri, 15 Oct 1965 UTC launched from the Air Force Eastern Test Range (AFETR). Debris objects in space refer to the collection of defunct objects orbiting the Earth. Examples of debris include non-operational satellites, rocket bodies, and fragments generated from explosions, collisions, or faulty payload assembly.

Loading next visibility...
Identifier
1684, 1965-082AX
Orbit
LEO
Country
Flag of USUS
Related business
Manufacturer
Unknown
Mission
Spacecraft
Bus & Motor
Unknown
Mass
Unknown
Launch date (UTC)
1965-10-15 (61 years ago)
Launch vehicle
Unknown
Launch site
Air Force Eastern Test Range (AFETR)
Object type
Payload
Rocket body
Debris
Shape & HBR
Unknown shape, 0.9 m
Radar Cross Section
Large (>1 m²)

Expand to show TLE details & history
Last TLE update: 6 hours ago

TLE from 6 hours ago
0 TITAN 3C TRANSTAGE DEB
1 01684U 65082AX  26125.92850866  .00002032  00000-0  52774-3 0  9995
2 01684  32.2137  58.2715 0166412  59.0672 302.6211 14.40311829136442
Epoch: 2026-05-05T22:17Z
TLE epoch observation values (Epoch: 2026-05-05T22:17:03.148Z)
Latitude
Longitude
-139.78793°
Altitude
693.561 km
Speed
7.544 km/s
True Right ascension
03h 53m 05s
True Declination
0° 00' 00"
Sunlit
Object was in daylight at epoch
Visualization orbit readout
Latitude
Unknown
Longitude
Unknown
Altitude
Unknown
Speed
Unknown
Apparent Right ascension
Unknown
Apparent Declination
Unknown
Sunlit
N/A
Visualization observer readout
Local Sidereal Time
12:37:00
Azimuth
Unknown
Elevation
Unknown
Doppler factor
Unknown
Orbital elements
Apogee altitude
879.821 km
Perigee altitude
642.213 km
Semi-major axis
7,139.154 km
Eccentricity
0.01664
Inclination
32.2137°
RAAN
58.2715°
Arg. of periapsis
59.0672°
True anomaly
300.99698°
Mean anomaly
302.6211°
Eccentric anomaly
301.81085°
Mean motion
3.5981 °/min
Orbital period
100.05 mins
BSTAR
0.00052774

Documentation

Showing up to 5 results
|